Simultaneous Nadir Overpasses (SNOs) Predictions

Prediction of SNOs between GOES-17 and METOP-C Satellite Orbit:

Table of predicted SNOs for the next 14.0 days since TLE Epoch: 5/2/2025
Index Date Time (GOES-17) GOES-17 Lat,Lon METOP-C Lat,Lon Distance(km) Time Diff (sec)
1 05/03/2025 04:45:33 -0.02,-104.36 -0.92,-108.26 445.80 80
2 05/04/2025 04:22:15 -0.02,-104.36 0.23,-103.28 123.28 80
3 05/05/2025 16:41:09 0.02,-104.42 0.75,-107.85 390.87 80
4 05/06/2025 16:23:11 0.02,-104.42 -0.35,-102.86 178.65 80
5 05/08/2025 04:42:12 -0.01,-104.39 -0.69,-107.45 349.43 80
6 05/09/2025 04:18:54 -0.01,-104.39 0.42,-102.46 220.23 80
7 05/10/2025 16:37:47 0.01,-104.45 0.62,-107.02 293.38 80
8 05/11/2025 16:19:50 0.01,-104.46 -0.55,-102.04 276.31 80
9 05/13/2025 04:38:50 -0.01,-104.42 -0.53,-106.63 251.89 80
10 05/14/2025 04:15:31 -0.01,-104.43 0.59,-101.63 317.51 80
11 05/15/2025 16:34:26 0.00,-104.48 0.37,-106.21 196.70 80
12 05/16/2025 16:16:27 0.00,-104.49 -0.75,-101.22 372.64 80
